Regional Weather Roundup
Issued by NWS

Home | Current Version | Previous Version | Graphics & Text | Print | Product List | Glossary On
Versions: 1 2 3 4 5 6 7 8 9 10 11 12 13 14 15 16 17 18 19 20 21 22 23 24 25 26 27
000
ASUS45 KSLC 280910
RWRUT

UTAH REGIONAL WEATHER ROUNDUP
NATIONAL WEATHER SERVICE SALT LAKE CITY UT
300 AM MDT WED JUN 28 2017

UTZ001>011-023>025-281000-

NORTHERN UTAH

CITY           SKY/WX    TMP DP  RH WIND       PRES   REMARKS
BRIGHAM CITY   CLEAR     64  40  41 CALM      29.86S
HILL AFB       CLEAR     64  37  36 E17       29.88F
LOGAN          CLEAR     53  47  79 N8        29.88S
OGDEN          CLEAR     65  38  36 NW5       29.85F
SALT LAKE CITY CLEAR     69  38  32 SW6       29.84S
TOOELE VALLEY  CLEAR     59  41  51 S9        29.86F
WENDOVER         N/A     67  32  27 CALM      29.86F
HEBER CITY     CLEAR     46  36  66 E7        29.97S
WEST JORDAN    CLEAR     64  43  46 CALM      29.88S

$$

UTZ011>015-024>027-281000-

CENTRAL/NORTHEAST UTAH

CITY           SKY/WX    TMP DP  RH WIND       PRES   REMARKS
PROVO AIRPORT  CLEAR     60  45  57 S6        29.89S
MOAB/CANYONLAN PTCLDY    78  28  16 NW8       29.81R
DELTA          CLEAR     61  30  31 NW8       29.89S
PRICE          CLEAR     66  30  26 NW3       29.94S
ROOSEVELT      CLEAR     54  32  43 CALM      29.94F
VERNAL         CLEAR     54  32  43 W5        29.93S

$$

UTZ013>016-019>022-027-281000-

SOUTHERN UTAH

CITY           SKY/WX    TMP DP  RH WIND       PRES   REMARKS
BRYCE CANYON   CLEAR     46  22  38 NE7       30.13S
CEDAR CITY     CLEAR     69  21  16 SE9       29.95F
MILFORD        CLEAR     67  22  18 SW13      29.90F
ST GEORGE      SUNNY     79  20  11 E6        29.76S
HANKSVILLE     CLEAR     70  21  16 CALM      29.85S
BLANDING       CLEAR     64  15  14 E3        30.01S

$$

REGIONAL REPORTS     COLORADO/ARIZONA

CITY           SKY/WX    TMP DP  RH WIND       PRES   REMARKS
CRAIG, CO      CLEAR     49  38  65 CALM      30.02S
GRAND JUNCTION CLEAR     75  26  16 W7        29.84F
RIFLE, CO      CLOUDY    64  30  27 E15       29.93F
MONTROSE, CO   CLEAR     62  22  21 SE9       29.96S
CORTEZ, CO     CLOUDY    49  27  42 E5        29.99S
COLORADO CITY    N/A     54  25  32 SE7       29.96S
PAGE, AZ       CLEAR     77  19  11 S5        29.86S
GRAND CANYON   CLEAR     42  14  32 CALM      30.12F
KINGMAN, AZ    CLEAR     75  17  11 S13       29.85F
FLAGSTAFF, AZ  CLEAR     46  11  24 CALM      30.16F

$$

REGIONAL REPORTS    NEVADA/IDAHO/WYOMING

CITY           SKY/WX    TMP DP  RH WIND       PRES   REMARKS
LAS VEGAS, NV  CLEAR     88  21   8 S15       29.68F
ELY, NY        CLEAR     46  15  28 S10       30.03F
ELKO, NV       CLEAR     51  33  50 S3        29.94S
POCATELLO, ID  PTCLDY    54  49  83 W14       29.94R
BURLEY, ID     PTCLDY    60  48  64 NE10      29.90R
FORT BRIDGER,    N/A     54  30  40 S10       30.08S
EVANSTON, WY   CLOUDY    55  29  36 S6        30.05F
ROCK SPRINGS,  CLEAR     55  32  41 SE6       30.02F
KEMMERER, WY     N/A     46  32  57 NE3       30.07S

$$




USA.gov is the U.S. government's official web portal to all federal, state and local government web resources and services.